Погода в Ивацевичах

Беларусь     52°42′32″N   25°20′19″E
темп.,
°C
ветер,
м/с
пор.,
м/с
влажн.,
%
обл.,
%
осадки,
мм/ч
давл.,
гПа
погр.,
м
13 апреля, вт
вт1300:00+11ююв3960100 0.0 1018221
03:00+11юв356192 0.0 1018129
06:00+9вюв336094 0.0 101867
09:00+11юв236267 0.0 1019222
12:00+15юв344992 0.0 1018933
15:00+13сз5464100 0.0 1017458
18:00+9ссз787996 0.0 1018496
21:00+5ссз71187100 0.0 1018430
14 апреля, ср
ср1400:00+4ссз61090100 0.0 1018428
03:00+4с6991100 0.0 1017427
06:00+3с6992100 0.0 1016409
09:00+3с6992100 0.1 1016394
12:00+4с5890100 0.0 1015423
15:00+5с5891100 0.4 1015420
18:00+4с5994100 1.1 1014319
21:00+4с4996100 2.4 1014300
15 апреля, чт
чт1500:00+5ссз3598100 0.8 1013173
03:00+5юз1199100 1.4 101361
06:00+5ююз2398100 1.8 1014104
09:00+5зюз1297100 3.9 101587
12:00+6ссз1193100 0.7 1016111
15:00+10ссз327997 0.8 1016478
18:00+11с467673 0.1 1015743
21:00+8ссв598899 0.4 1016487
16 апреля, пт
пт1600:00+6с5991100 0.0 1015431
03:00+5с5992100 0.0 1015486
06:00+5с5994100 0.2 1014463
09:00+5с5995100 1.0 1014411
12:00+7ссв4894100 0.3 1014351
15:00+11ссв5779100 0.6 1014979
18:00+9св51093100 4.5 1014642
21:00+8св379571 4.9 1016227
17 апреля, сб
сб1700:00+7ссв499753 0.0 1016211
03:00+7св3897100 0.1 1017302
06:00+8ссв2598100 0.8 1017190
09:00+9всв469293 1.2 1018549
12:00+12в675928 0.6 10191575
15:00+13в775030 0.7 10191931
18:00+12вюв5656100 0.0 10201278
21:00+8ююв2278100 0.0 102032